1317081634569,58.2458
1317081694569,58.3001
1317081754569,58.1398
1317081814569,58.1025
1317081874569,58.1859
1317081934569,58.3170
1317081994569,58.2961
1317082054569,58.2703
1317082114569,58.2649
1317082174569,58.1452
1317082234569,58.3827
1317082294569,58.3571
1317082354569,58.3514
1317082414569,58.3075
1317082474569,58.2549
1317082534569,58.2226
1317082594569,58.2147
1317082654569,58.4348
1317082714569,58.3265
1317082774569,58.5091
1317082834569,58.2475
1317082894569,58.3266
1317082954569,58.3059
1317083014569,58.2859
1317083074569,58.2348
1317083134569,58.2448
1317083194569,58.3138
1317083254569,58.3092
1317083314569,58.2908
1317083374569,58.2819
1317083434569,58.3311
1317083494569,58.2607
1317083554569,58.3750
1317083614569,58.4047
1317083674569,58.3403
1317083734569,58.4308
1317083794569,58.3245
1317083854569,58.3250
1317083914569,58.1467
1317083974569,58.4019
1317084034569,58.3394
1317084094569,58.0700
1317084154569,58.2687
1317084214569,58.2547
1317084274569,58.1877
1317084334569,58.2040
1317084394569,58.4291
1317084454569,58.2979
1317084514569,58.3170
1317084574569,58.2052
1317084634569,58.3287
1317084694569,58.4269
1317084754569,58.2394
1317084814569,58.2950
1317084874569,58.2882
1317084934569,58.2339
1317084994569,58.3615
1317085054569,58.2614
1317085114569,58.1495
1317085174569,58.3174
1317085234579,58.2211
1317085294579,58.3164
1317085354579,58.1232
1317085414579,58.2932
1317085474579,58.3117
1317085534579,58.1447
1317085594579,58.2649
1317085654579,58.2552
1317085714579,58.1551
1317085774579,58.2371
1317085834579,58.0958
1317085894579,58.1125
1317085954579,58.1908
1317086014579,58.2866
1317086074579,58.2032
1317086134579,58.1807
1317086194579,58.2653
1317086254579,58.1292
1317086314579,58.1783
1317086374579,58.2851
1317086434579,58.3176
1317086494579,58.3684
1317086554579,58.3239
1317086614579,58.2530
1317086674579,58.1917
1317086734579,58.2300
1317086794579,58.3373
1317086854579,58.2332
1317086914579,58.2817
1317086974579,58.3231
1317087034579,58.3525
1317087094579,58.2337
1317087154579,58.4048
1317087214579,58.4005
1317087274579,58.2777
1317087334579,58.4102
1317087394579,58.2472
1317087454579,58.5113
1317087514579,58.3160
1317087574579,58.1662
1317087634579,58.2718
1317087694579,58.2697
1317087754579,58.2100
1317087814579,58.2371
1317087874579,58.1979
1317087934579,58.2490
1317087994579,58.2162
1317088054579,58.0727
1317088114579,58.1936
1317088174579,58.3719
1317088234579,58.2040
1317088294579,58.2539
1317088354579,58.2450
1317088414579,58.1622
1317088474579,58.2056
1317088534579,58.2294
1317088594579,58.2120
1317088654579,58.4342
1317088714579,58.0432
1317088774579,58.3160
1317088834590,58.1212
1317088894590,58.2999
1317088954590,58.0596
1317089014590,58.2560
1317089074590,58.0542
1317089134590,58.1617
1317089194590,58.1264
1317089254590,58.0853
1317089314590,58.1217
1317089374590,58.0009
1317089434590,58.2278
1317089494590,58.0780
1317089554590,58.0271
1317089614590,57.9463
1317089674590,58.0545
1317089734590,58.1206
1317089794590,58.0325
1317089854590,58.0460
1317089914590,57.9892
1317089974590,57.9839
1317090034590,58.0402
1317090094590,57.9285
1317090154590,58.0184
1317090214590,57.8687
1317090274590,57.9092
1317090334590,57.8761
1317090394590,57.8935
1317090454590,57.9745
1317090514590,57.9521
1317090574590,57.8121
1317090634590,57.7550
1317090694590,57.8602
1317090754590,57.9926
1317090814590,57.8242
1317090874590,57.8807
1317090934590,57.7459
1317090994590,57.9031
1317091054590,57.8811
1317091114590,57.7295
1317091174590,58.1183
1317091234590,57.8148
1317091294590,57.8579
1317091354590,57.7424
1317091414590,57.9334
1317091474590,57.6877
1317091534590,57.7154
1317091594590,57.9076
1317091654590,57.7020
1317091714590,57.8463
1317091774590,57.8562
1317091834590,57.9906
1317091894590,57.9306
1317091954590,57.6957
1317092014590,57.7573
1317092074590,57.7130
1317092134590,57.8515
1317092194590,57.6741
1317092254590,57.9099
1317092314590,57.8907
1317092374590,57.8713
1317092434600,57.6921
1317092494600,57.7499
1317092554600,57.7760
1317092614600,57.8925
1317092674600,57.8602
1317092734600,57.6419
1317092794600,57.6996
1317092854600,57.6356
1317092914600,57.7621
1317092974600,57.6390
1317093034600,57.6729
1317093094600,57.6734
1317093154600,57.6579
1317093214600,57.7010
1317093274600,57.8010
1317093334601,57.7839
1317093394601,57.7803
1317093454600,57.6581
1317093514600,57.6134
1317093574600,57.6769
1317093634600,57.7761
1317093694600,57.6255
1317093754600,57.7956
1317093814600,57.6733
1317093874600,57.7446
1317093934600,57.7921
1317093994600,57.6115
1317094054600,57.7006
1317094114600,57.6415
1317094174600,57.6222
1317094234600,57.7355
1317094294600,57.5970
1317094354600,57.4682
1317094414600,57.5274
1317094474600,57.5696
1317094534600,57.4380
1317094594600,57.6346
1317094654601,57.5437
1317094714601,57.6227
1317094774601,57.4698
1317094834600,57.5584
1317094894600,57.4890
1317094954600,57.5481
1317095014600,57.5513
1317095074600,57.4002
1317095134600,57.4545
1317095194600,57.5718
1317095254600,57.4461
1317095314600,57.3696
1317095374600,57.5074
1317095434600,57.3161
1317095494600,57.3793
1317095554600,57.3145
1317095614600,57.5633
1317095674600,57.5098
1317095734600,57.3713
1317095794600,57.4121
1317095854600,57.4958
1317095914600,57.4955
1317095974600,57.4125
1317096034611,57.3170
1317096094611,57.4788
1317096154611,57.3943
1317096214611,57.1789
1317096274611,57.3671
1317096334611,57.3319
1317096394611,57.4050
1317096454611,57.3104
1317096514611,57.5077
1317096574611,57.3822
1317096634611,57.4287
1317096694611,57.2677
1317096754611,57.1512
1317096814611,57.2061
1317096874611,57.1082
1317096934611,57.3549
1317096994611,57.2674
1317097054611,57.1489
1317097114611,57.2422
1317097174611,57.4380
1317097234611,57.1958
1317097294611,57.2738
1317097354611,57.2598
1317097414611,57.0479
1317097474611,57.3886
1317097534611,57.3072
1317097594611,57.0758
1317097654611,57.1664
1317097714611,57.0706
1317097774611,57.0753
1317097834611,57.0480
1317097894611,57.1796
1317097954611,57.0383
1317098014611,56.9979
1317098074611,56.9934
1317098134611,57.0795
1317098194611,56.9867
1317098254611,56.9396
1317098314611,57.1095
1317098374611,56.9666
1317098434611,56.9749
1317098494611,57.0117
1317098554611,56.9707
1317098614611,57.2395
1317098674611,57.0947
1317098734611,56.9903
1317098794611,57.1877
1317098854611,56.9730
1317098914611,57.2076
1317098974611,57.1708
1317099034611,57.2749
1317099094611,57.2305
1317099154611,57.1976
1317099214611,57.2575
1317099274611,57.1759
1317099334611,57.1909
1317099394611,57.1882
1317099454611,57.0869
1317099514611,57.1462
1317099574611,57.2954
1317099634621,57.2477
1317099694621,57.1419
1317099754621,57.3826
1317099814621,57.1909
1317099874621,57.3813
1317099934621,57.2335
1317099994621,57.4095
1317100054621,57.4489
1317100114621,57.5981
1317100174621,57.4116
1317100234621,57.4997
1317100294621,57.3743
1317100354621,57.4536
1317100414621,57.4513
1317100474621,57.2212
1317100534621,57.4478
1317100594621,57.4335
1317100654621,57.4222
1317100714621,57.3724
1317100774621,57.3095
1317100834621,57.4019
1317100894621,57.4393
1317100954621,57.3596
1317101014621,57.3725
1317101074621,57.4533
1317101134621,57.3239
1317101194621,57.1231
1317101254621,57.2032
1317101314621,57.1146
1317101374621,57.1907
1317101434621,57.1161
1317101494621,57.0575
1317101554621,56.9738
1317101614621,57.0627
1317101674621,56.8924
1317101734621,57.0225
1317101794621,56.9338
1317101854621,57.1189
1317101914621,57.0017
1317101974621,56.8882
1317102034621,56.8294
1317102094621,56.9596
1317102154621,56.8318
1317102214621,56.9742
1317102274621,56.8744
1317102334621,56.8497
1317102394621,56.7894
1317102454621,56.8395
1317102514621,56.8566
1317102574621,56.8262
1317102634621,56.8985
1317102694621,56.7604
1317102754621,56.7108
1317102814621,56.8420
1317102874621,56.7006
1317102934621,56.8876
1317102994621,56.7416
1317103054621,56.6995
1317103114621,56.7460
1317103174621,56.4255
1317103234632,55.8110
1317116194661,57.5908
1317116254661,57.4718
1317116314661,57.4230
1317116374661,57.4397
1317116434661,57.2924
1317116494661,57.2679
1317116554661,57.3040
1317116614661,57.3561
1317116674661,57.5031
1317116734661,57.2863
1317116794661,57.4344
1317116854661,57.3618
1317116914661,57.4225
1317116974661,57.5091
1317117034661,57.4062
1317117094661,57.4107
1317117154661,57.4196
1317117214661,57.1886
1317117274661,57.3251
1317117334661,57.3249
1317117394661,57.4007
1317117454661,57.3933
1317117514661,57.3142
1317117574661,57.1688
1317117634672,57.3164
1317117694672,57.2211
1317117754672,57.3089
1317117814672,57.1953
1317117874672,57.2855
1317117934672,57.0578
1317117994672,57.1999
1317118054672,57.1825
1317118114672,57.1844
1317118174672,57.1519
1317118234672,57.3032
1317118294672,57.2943
1317118354672,57.1862
1317118414672,57.2237
1317118474672,57.4586
1317118534672,57.0655
1317118594672,57.2538
1317118654672,57.1988
1317118714672,57.3551
1317118774672,57.1963
1317118834672,57.1270
1317118894672,57.2869
1317118954672,57.1288
1317119014672,57.2913
1317119074672,56.9364
1317119134672,57.1944
1317119194672,57.0714
1317119254672,57.1129
1317119314672,57.2509
1317119374672,57.2583
1317119434672,57.1231
1317119494672,57.2800
1317119554672,57.2374
1317119614672,57.1441
1317119674672,57.3406
1317119734672,57.3693
1317119794672,57.3363
1317119854672,57.3605
1317119914672,57.3213
1317119974672,57.3688
1317120034672,57.3178
1317120094672,57.4250
1317120154672,57.2782
1317120214672,57.2744
1317120274672,57.3157
1317120334672,57.2934
1317120394672,57.2968
1317120454672,57.1835
1317120514672,57.2821
1317120574672,57.3176
1317120634672,57.4103
1317120694672,57.3099
1317120754672,57.4714
1317120814672,57.6474
1317120874672,57.6595
1317120934672,57.5284
1317120994672,57.6105
1317121054672,57.6306
1317121114672,57.7880
1317121174672,57.4926
1317121234683,57.5163
1317121294683,57.7593
1317121354683,57.4375
1317121414683,57.5351
1317121474683,57.6553
1317121534683,57.5647
1317121594683,57.6397
1317121654683,57.6550
1317121714683,57.6266
1317121774683,57.5717
1317121834683,57.4351
1317121894683,57.7169
1317121954683,57.5214
1317122014683,57.5846
1317122074683,57.5668
1317122134683,57.6031
1317122194683,57.5315
1317122254683,57.7297
1317122314683,57.5656
1317122374683,57.5956
1317122434683,57.7346
1317122494683,57.7937
1317122554683,57.7180
1317122614683,57.7742
1317122674683,57.6186
1317122734683,57.8029
1317122794683,57.6778
1317122854683,57.6275
1317122914683,57.7696
1317122974683,57.7305
1317123034683,57.6014
1317123094683,57.6703
1317123154683,57.6396
1317123214683,57.7645
1317123274683,57.8200
1317123334683,57.6409
1317123394683,57.6818
1317123454683,57.5547
1317123514683,57.6312
1317123574683,57.6808
1317123634683,57.6217
1317123694683,57.6686
1317123754683,58.0047
1317123814683,57.6529
1317123874683,57.6529
1317123934683,57.6616
1317123994683,57.6522
1317124054683,57.7458
1317124114683,57.5925
1317124174683,57.7099
1317124234683,57.6903
1317124294683,57.5882
1317124354683,57.5882
1317124414683,57.8110
1317124474683,57.7293
1317124534683,57.7605
1317124594683,57.6255
1317124654683,57.6904
1317124714683,57.6231
1317124774683,57.5420
1317124834695,57.7401
1317124894695,57.7124
1317124954695,57.8420
1317125014695,57.7278
1317125074695,57.6071
1317125134695,57.6749
1317125194695,57.6464
1317125254695,57.6695
1317125314695,57.6314
1317125374695,57.7295
1317125434695,57.6865
1317125494695,57.6988
1317125554695,57.8010
1317125614695,57.5659
1317125674695,57.5953
1317125734695,57.7465
1317125794695,57.7360
1317125854695,57.7550
1317125914695,57.5404
1317125974695,57.7348
1317126034695,57.7743
1317126094695,57.5951
1317126154695,57.7108
1317126214695,57.6336
1317126274695,57.6984
1317126334695,57.5090
1317126394695,57.5954
1317126454695,57.6195
1317126514695,57.4773
1317126574695,57.7021
1317126634695,57.7525
1317126694695,57.5259
1317126754695,57.6069
1317126814695,57.4798
1317126874695,57.5135
1317126934695,57.4954
1317126994695,57.5412
1317127054695,57.6043
1317127114695,57.6630
1317127174695,57.5009
1317127234695,57.6251
1317127294695,57.5565
1317127354695,57.3202
1317127414695,57.3297
1317127474695,57.4369
1317127534695,57.5191
1317127594695,57.4844
1317127654695,57.4316
1317127714695,57.5198
1317127774695,57.5132
1317127834695,57.4993
1317127894695,57.4312
1317127954695,57.4166
1317128014695,57.3423
1317128074695,57.4499
1317128134695,57.6492
1317128194695,57.5011
1317128254695,57.4343
1317128314695,57.5136
1317128374695,57.4933
1317128434707,57.9361
1317128494707,57.4962
1317128554707,57.4314
1317128614707,57.4881
1317128674707,57.4889
1317128734707,57.4306
1317128794707,57.5419
1317128854707,57.5484
1317128914707,57.4045
1317128974707,57.4956
1317129034707,57.3698
1317129094707,57.4835
1317129154707,57.4906
1317129214707,57.4966
1317129274707,57.5613
1317129334707,57.4341
1317129394707,57.3221
1317129454707,57.3854
1317129514707,57.4226
1317129574707,57.4377
1317129634707,57.4178
1317129694707,57.5685
1317129754707,57.7347
1317129814707,57.3945
1317129874707,57.5046
1317129934707,57.4921
1317129994707,57.4848
1317130054707,57.4073
1317130114707,57.5526
1317130174707,57.3876
1317130234707,57.3030
1317130294707,57.4717
1317130354707,57.5853
1317130414707,57.6013
1317130474707,57.4865
1317130534707,57.5210
1317130594707,57.4391
1317130654707,57.4156
1317130714707,57.5051
1317130774707,57.4859
1317130834707,57.3439
1317130894707,57.5018
1317130954707,57.4308
1317131014707,57.2959
1317131074707,57.4977
1317131134707,57.2868
1317131194707,57.4083
1317131254707,57.4080
1317131314707,57.4259
1317131374707,57.4563
1317131434707,57.5063
1317131494707,57.3790
1317131554707,57.3226
1317131614707,57.4219
1317131674707,57.5639
1317131734707,57.3310
1317131794707,57.2262
1317131854707,57.4976
1317131914707,57.3269
1317131974707,57.3369
1317132034719,57.3613
1317132094719,57.3254
1317132154719,57.4060
1317132214719,57.5259
1317132274719,57.3239
1317132334719,57.3064
1317132394719,57.4747
1317132454719,57.6111
1317132514719,57.3736
1317132574719,57.4251
1317132634719,57.5037
1317132694719,57.3500
1317132754719,57.4631
1317132814719,57.3518
1317132874719,57.3206
1317132934719,57.1895
1317132994719,57.3129
1317133054719,57.2128
1317133114719,57.1972
1317133174719,57.1535
1317133234719,57.3476
1317133294719,57.3720
1317133354719,57.5309
1317133414719,57.1472
1317133474719,57.3509
1317133534719,57.4070
1317133594719,57.3848
1317133654719,57.4766
1317133714719,57.2203
1317133774719,57.2792
1317133834719,57.5216
1317133894719,57.3941
1317133954719,57.5322
1317134014719,57.5146
1317134074719,57.3825
1317134134719,57.4272
1317134194719,57.5850
1317134254719,57.3765
1317134314719,57.4839
1317134374719,57.3499
1317134434719,57.4004
1317134494719,57.4817
1317134554719,57.4905
1317134614719,57.4188
1317134674719,57.4884
1317134734719,57.5959
1317134794719,57.4170
1317134854719,57.4625
1317134914719,57.4620
1317134974719,57.3643
1317135034719,57.3589
1317135094719,57.3922
1317135154719,57.4235
1317135214719,57.5091
1317135274719,57.4548
1317135334719,57.3411
1317135394719,57.5827
1317135454719,57.3319
1317135514719,57.3369
1317135574719,57.4032
1317135634731,57.3550
1317135694731,57.3103
1317135754731,57.2870
1317135814731,57.4670
1317135874731,57.2607
1317135934731,57.4005
1317135994731,57.1091
1317136054731,57.2742
1317136114731,57.5015
1317136174731,57.2682
1317136234731,57.4129
1317136294731,57.1261
1317136834731,57.5411
1317136894731,57.2840
1317136954731,57.4571
1317137014731,57.4679
1317137074731,57.5109
1317137134731,57.3507
1317137194731,57.3885
1317137254731,57.6102
1317137314731,57.6267
1317137374731,57.5730
1317137434731,57.6067
1317137494731,57.4189
1317137554731,57.5073
1317137614731,57.7524
1317137674731,57.7008
1317137734731,57.7363
1317137794731,57.7254
1317137854731,57.5837
1317137914731,57.5399
1317137974731,57.5971
1317138034731,57.6750
1317138094731,57.5670
1317138154731,57.5680
1317138214731,57.5697
1317138274731,57.6050
1317138334731,57.6329
1317138394731,57.6643
1317138454731,57.5108
1317138514731,57.4727
1317138574731,57.5040
1317138634731,57.5162
1317138694731,57.5419
1317138754731,57.4691
1317138814731,57.7951
1317138874731,57.6654
1317138934731,57.6913
1317138994731,57.5353
1317139054731,57.5172
1317139114731,57.6111
1317139174731,57.6780
1317139234743,57.6582
1317139294743,57.7099
1317139354743,57.6844
1317139414743,57.6233
1317139474743,57.6873
1317139534743,57.7065
1317139594743,57.6556
1317139654743,58.2071
1317139714743,57.6735
1317139774743,57.6020
1317139834743,57.5189
1317139894743,57.7799
1317139954743,57.5757
1317140014743,57.5170
1317140074743,57.8114
1317140134743,57.7273
1317140194743,57.5957
1317140254743,57.4971
1317140314743,57.7398
1317140374743,57.6788
1317140434743,57.6143
1317140494743,57.7351
1317140554743,57.8163
1317140614743,57.6515
1317140674743,57.5753
1317140734743,57.5319
1317140794743,57.5203
1317140854743,57.4811
1317140914743,57.5022
1317140974743,57.6660
1317141034743,57.6781
1317141094743,57.6618
1317141154743,57.5452
1317141214743,57.6492
1317141274743,57.5405
1317141334743,57.8107
1317141394743,57.6444
1317141454743,57.5082
1317141514743,57.6530
1317141574743,57.7465
1317141634743,57.7572
1317141694743,57.7391
1317141754743,57.7155
1317141814743,57.8515
1317141874743,57.4521
1317141934743,57.6583
1317141994743,57.6772
1317142054743,57.6491
1317142114743,57.5223
1317142174743,57.5488
1317142234743,57.6653
1317142294743,57.5920
1317142354743,57.6791
1317142414743,57.6697
1317142474743,57.6190
1317142534743,57.4937
1317142594743,57.5219
1317142654743,57.4578
1317142714743,57.3931
1317142774743,57.4828
1317142834756,57.4764
1317142894756,57.5678
1317142954756,57.4430
1317143014756,57.3914
1317143074756,57.3998
1317143134756,57.6537
1317143194756,57.4161
1317143254756,57.4415
1317143314756,57.4182
1317143374756,57.3171
1317143434756,57.5992
1317143494756,57.4791
1317143554756,57.2632
1317143614756,57.4306
1317143674756,57.4364
1317143734756,57.3896
1317143794756,57.2917
1317143854756,57.2739
1317143914756,57.5200
1317143974756,57.2300
1317144034756,57.3014
1317144094756,57.4907
1317144154756,57.2564
1317144214756,57.4510
1317144274756,57.2124
1317144334756,57.1672
1317144394756,57.3865
1317144454756,57.2063
1317144514756,57.2902
1317144574756,57.2424
1317144634756,57.1636
1317144694756,57.2227
1317144754756,57.4395
1317144814756,57.3276
1317144874756,57.1667
1317144934756,57.3433
1317144994756,57.2380
1317145054756,57.2372
1317145114756,57.1359
1317145174756,57.1821
1317145234756,57.2010
1317145294756,57.2080
1317145354756,57.0749
1317145414756,57.0734
1317145474756,57.1396
1317145534756,56.9964
1317145594756,57.1486
1317145654756,57.0676
1317145714756,57.0209
1317145774756,57.1609
1317145834756,57.2001
1317145894756,57.0347
1317145954756,56.9142
1317146014756,57.1975
1317146074756,57.0009
1317146134756,57.0374
1317146194756,56.8487
1317146254756,56.9025
1317146314756,56.9592
1317146374756,57.1024
1317146434768,56.7761
1317146494768,56.9035
1317146554768,56.8867
1317146614768,56.8175
1317146674768,56.9044
1317146734768,56.9605
1317146794768,56.9855
1317146854768,56.9761
1317146914768,57.0301
1317146974768,57.1755
1317147034768,57.1560
1317147094768,57.0626
1317147154768,56.9402
1317147214768,56.9308
1317147274768,56.9907
1317147334768,56.9611
1317147394768,56.9524
1317147454768,56.8646
1317147514768,56.7981
1317147574768,56.9407
1317147634768,56.8208
1317147694768,56.9582
1317147754768,56.8937
1317147814768,56.7648
1317147874768,56.9399
1317147934768,56.8229
1317147994768,56.8500
1317148054768,56.7693
1317148114768,56.8547
1317148174768,56.8971
1317148234768,56.7690
1317148294768,56.8742
1317148354768,56.9891
1317148414768,56.7537
1317148474768,56.9091
1317148534768,56.8888
1317148594768,56.8529
1317148654768,56.7863
1317148714768,56.8289
1317148774768,56.8069
1317148834768,56.7243
1317148894768,56.7524
1317148954768,56.8994
1317149014768,56.9275
1317149074768,56.7122
1317149134768,56.7675
1317149194768,56.9040
1317149254768,56.8256
1317149314768,56.9444
1317149374768,56.7579
1317149434768,56.7792
1317149494768,56.7624
1317149554768,56.6713
1317149614768,56.8433
1317149674768,56.6387
1317149734768,56.7098
1317149794768,56.8512
1317149854768,56.8030
1317149914768,56.6985
1317149974768,56.8589
1317150034781,56.8363
1317150094781,56.6807
1317150154781,56.6128
1317150214781,56.8547
1317150274781,56.8110
1317150334781,56.7262
1317150394781,56.8843
1317150454781,56.7441
1317150514781,56.7860
1317150574781,56.8343
1317150634781,56.7428
1317150694781,56.6878
1317150754781,56.7639
1317150814781,56.7504
1317150874781,56.7356
1317150934781,56.7991
1317150994781,56.7472
1317151054781,56.7733
1317151114781,56.7193
1317151174781,56.7002
1317151234781,56.7040
1317151294781,56.5079
1317151354781,56.5832
1317151414781,56.6777
1317151474781,56.5961
1317151534781,56.5265
1317151594781,56.6037
1317151654781,56.5097
1317151714781,56.6439
1317151774781,56.6547
1317151834781,56.7276
1317151894781,56.6106
1317151954781,56.7613
1317152014781,56.5871
1317152074781,56.5514
1317152134781,56.5072
1317152194781,56.6107
1317152254781,56.5378
1317152314781,56.6076
1317152374781,56.4804
1317152434781,56.4839
1317152494781,56.4318
1317152554781,56.4930
1317152614781,56.5131
1317152674781,56.5931
1317152734781,56.3925
1317152794781,56.4567
1317152854781,56.5110
1317152914781,56.3315
1317152974781,56.4715
1317153034781,56.3733
1317153094781,56.3625
1317153154781,56.3994
1317153214781,56.4430
1317153274781,56.5674
1317153334781,56.3766
1317153394781,56.5126
1317153454781,56.3157
1317153514781,56.3841
1317153574781,56.4243
1317153634793,56.5559
1317153694793,56.3472
1317153754793,56.3394
1317153814793,56.3617
1317153874793,56.4706
1317153934793,56.3756
1317153994793,56.4132
1317154054793,56.3727
1317154114793,56.4242
1317154174793,56.3274
1317154234793,56.3539
1317154294793,56.3273
1317154354793,56.4685
1317154414793,56.2607
1317154474793,56.3154
1317154534793,56.3690
1317154594793,56.2223
1317154654793,56.4031
1317154714793,56.0376
1317154774793,56.1574
1317154834793,56.2383
1317154894793,56.1128
1317154954793,56.2273
1317155014793,56.1788
1317155074793,56.2365
1317155134793,56.6179
1317155194793,56.3474
1317155254793,56.1016
1317155314793,56.2003
1317155374793,56.2109
1317155434793,56.1455
1317155494793,56.0910
1317155554793,56.3459
1317155614793,56.3527
1317155674793,56.3935
1317155734793,56.2074
1317155794793,56.0858
1317155854793,56.2302
1317155914793,56.1885
1317155974793,56.0719
1317156034793,56.3605
1317156094793,56.3211
1317156154793,56.2437
1317156214793,56.3237
1317156274793,56.1276
1317156334793,56.1369
1317156394793,56.1965
1317156454793,56.2010
1317156514793,56.2895
1317156574793,56.4090
1317156634793,56.2702
1317156694793,56.2583
1317156754793,56.4104
1317156814793,56.2246
1317156874793,56.4882
1317156934793,56.3018
1317156994793,56.4731
1317157054793,56.2968
1317157114793,56.2880
1317157174793,56.3522
1317157234805,56.3016
1317157294805,56.4145
1317157354805,56.5731
1317157414805,56.3917
1317157474805,56.4993
1317157534805,56.4444
1317157594805,56.3807
1317157654805,56.4365
1317157714805,56.4110
1317157774805,56.5757
1317157834805,56.6648
1317157894805,56.7023
1317157954805,56.5768
1317158014805,56.6575
1317158074805,56.4889
1317158134805,56.5565
1317158194805,56.5123
1317158254805,56.7415
1317158314805,56.5585
1317158374805,56.6409
1317158434805,56.4802
1317158494805,56.4692
1317158554805,56.5627
1317158614805,56.5346
1317158674805,56.5120
1317158734805,56.5247
1317158794805,56.4893
1317158854805,56.3999
1317158914805,56.4230
1317158974805,56.3469
1317159034805,56.3662
1317159094805,56.3276
1317159154805,56.3797
1317159214805,56.2723
1317159274805,56.1987
1317159334805,56.1452
1317159394805,56.2769
1317159454805,56.2788
1317159514805,56.2694
1317159574805,56.0936
1317159634805,56.1854
1317159694805,56.2269
1317159754805,56.1708
1317159814805,56.2705
1317159874805,56.0089
1317159934805,56.0891
1317159994805,56.2306
1317160054805,56.2169
1317160114805,56.1579
1317160174805,56.2067
1317160234805,56.1995
1317160294805,56.0312
1317160354805,56.0972